Regional Weather Roundup
Issued by NWS

Home | Current Version | Previous Version | Text Only | Print | Product List | Glossary On
Versions: 1 2 3 4 5 6 7 8 9 10 11 12 13 14 15 16 17 18 19 20 21 22 23 24 25 26 27 28 29 30 31 32 33 34 35 36 37 38 39 40 41 42 43 44 45 46 47 48 49 50
000
ASUS44 KMEG 200310
RWRTN
TENNESSEE HOURLY STATE WEATHER ROUNDUP
NATIONAL WEATHER SERVICE MEMPHIS TN
1000 PM CDT TUE SEP 19 2017

TNZ002-004-019-021-049-052-054-088>092-200400-
WEST TENNESSEE

CITY           SKY/WX    TMP DP  RH WIND       PRES   REMARKS
MEMPHIS INTL   CLEAR     80  72  76 S7        29.92R
NWS MEMPHIS      N/A     78 N/A N/A MISG        N/A
JACKSON        CLEAR     72  72 100 CALM      29.94R FOG
DYERSBURG      CLEAR     77  71  82 S3        29.92S
SOMERVILLE     CLEAR     77  72  83 S5        29.92S
COVINGTON      CLEAR     73  72  94 SE5       29.92R
BOLIVAR        CLEAR     72  72 100 CALM      29.93S
PARIS          CLEAR     70  70 100 CALM      29.92S
HUNTINGDON     CLEAR     73  72  94 CALM      29.92S
LEXINGTON      MOCLDY    73  73 100 CALM      29.94R FOG
SELMER         CLEAR     72  70  94 CALM      29.94S
SAVANNAH       PTCLDY    75  73  94 CALM      29.94R
$$

TNZ008-025-027-028-033-062-065-066-200400-
NORTH MIDDLE TENNESSEE

CITY           SKY/WX    TMP DP  RH WIND       PRES   REMARKS
NASHVILLE      MOCLDY    70  69  97 S5        29.97R
PORTLAND       PTCLDY    72  68  88 S8        29.96R
CLARKSVILLE    CLEAR     70  67  90 SE5       29.94S
SMYRNA         PTCLDY    73  68  83 S5        29.97
COOKEVILLE     CLEAR     63  61  94 CALM      29.99S FOG
GALLATIN       MOCLDY    70  68  94 CALM      29.99S
CROSSVILLE     CLEAR     63  61  93 CALM      30.05R
$$

TNZ061-075-076-078-094-096-097-200400-
SOUTH MIDDLE TENNESSEE

CITY           SKY/WX    TMP DP  RH WIND       PRES   REMARKS
TULLAHOMA      CLEAR     66  64  94 CALM      30.02R
WINCHESTER     CLEAR     66  66 100 CALM      29.99F
MCMINNVILLE    MOCLDY    68  68 100 S3        30.00S
COLUMBIA       CLEAR     72 N/A N/A CALM      29.95S
SHELBYVILLE    CLOUDY    66  66 100 SE3       29.99R
$$

TNZ017-018-042-046-047-200400-
NORTHEAST TENNESSEE

CITY           SKY/WX    TMP DP  RH WIND       PRES   REMARKS
TRI CITIES     CLEAR     66  63  90 CALM      30.03R
ELIZABETHTON   MOCLDY    63  61  94 CALM      30.04R
$$

TNZ012-013-036-069-073-074-200400-
CENTRAL EAST TENNESSEE

CITY           SKY/WX    TMP DP  RH WIND       PRES   REMARKS
KNOXVILLE      PTCLDY    67  64  90 CALM      30.00R
OAK RIDGE      CLEAR     66  64  93 CALM      30.03R
DOWNTOWN KNOXV   N/A     64  64 100 CALM      30.00R
GATLINBURG     CLEAR     64  61  88 CALM      30.01R
MORRISTOWN     CLOUDY    70  63  78 SW5       30.01R
JACKSBORO      FOG       66  64  94 CALM      30.05R VSB 1/4
$$

TNZ083-085-099-200400-
SOUTHEAST TENNESSEE

CITY           SKY/WX    TMP DP  RH WIND       PRES   REMARKS
CHATTANOOGA    PTCLDY    69  66  90 CALM      30.01R
DAYTON         PTCLDY    64  64 100 CALM      30.00R FOG
$$

SKY/WX REPORTED AS FAIR MEANS FEW OR NO CLOUDS BELOW
12 THOUSAND FEET.





USA.gov is the U.S. government's official web portal to all federal, state and local government web resources and services.